Homer, AK

7:52 PM AKST on November 22, 2017 (GMT -0900)
Homer

Weather History for PAHO - November, 2011

Change the Weather History Date:

Saturday, November 19, 2011

  Actual Average Record
Temperature  
Mean Temperature 11 °F -  
Max Temperature 21 °F 35 °F 49 °F (1935)
Min Temperature 1 °F 23 °F 1 °F (1950)
Degree Days  
Heating Degree Days 54    
Moisture  
Dew Point 3 °F    
Average Humidity 67    
Maximum Humidity 78    
Minimum Humidity 56    
Precipitation  
Precipitation 0.00 in - - ()
Sea Level Pressure  
Sea Level Pressure 29.81 in    
Wind  
Wind Speed 4 mph (NE)    
Max Wind Speed 13 mph    
Max Gust Speed -    
Visibility 10 miles    
Events      
Averages and records for this station are not official NWS values.
T = Trace of Precipitation, MM = Missing Value Source: NWS Daily Summary

Daily Weather History Graph

Daily Weather History Graph

Search for Another Location

Airport or City:

Trip Planner

Search our weather history database for the weather conditions in past years. The results will help you decide how hot, cold, wet, or windy it might be!

Date:

Astronomy

Nov. 19, 2011 Rise Set
Actual Time 9:11 AM AKST 4:30 PM AKST
Civil Twilight 8:21 AM AKST 5:20 PM AKST
Nautical Twilight 7:29 AM AKST 6:11 PM AKST
Astronomical Twilight 6:41 AM AKST 7:00 PM AKST
Moon 1:13 AM AKST (11/19) 2:13 PM AKST (11/19)
Length of Visible Light 8h 58m
Length of Day
7h 19m
Last Quarter, 36% of the Moon is Illuminated
Nov 19
Last Quarter
Nov 24
New
Dec 2
First Quarter
Dec 10
Full
Dec 17
Last Quarter

Hourly Weather History & Observations

Time (AKST) Temp. Windchill Dew Point Humidity Pressure Visibility Wind Dir Wind Speed Gust Speed Precip Events Conditions
12:53 AM 5.0 °F - -2.9 °F 70% 30.11 in 10.0 mi Calm Calm - N/A   Clear
1:53 AM 1.9 °F -5.6 °F -4.0 °F 76% 30.12 in 10.0 mi NNE 3.5 mph - N/A   Clear
3:53 AM 8.1 °F 1.4 °F -2.9 °F 61% 30.07 in 10.0 mi ENE 3.5 mph - N/A   Clear
4:53 AM 9.0 °F -3.2 °F -2.0 °F 61% 30.05 in 10.0 mi ENE 8.1 mph - N/A   Clear
5:53 AM 7.0 °F -1.7 °F -2.9 °F 64% 30.03 in 10.0 mi NNE 4.6 mph - N/A   Clear
6:53 AM 1.0 °F -6.7 °F -5.1 °F 75% 30.02 in 10.0 mi NE 3.5 mph - N/A   Clear
7:53 AM 3.9 °F -8.2 °F -2.9 °F 73% 29.99 in 10.0 mi NNE 6.9 mph - N/A   Clear
8:53 AM 8.1 °F -4.3 °F -0.0 °F 70% 29.95 in 10.0 mi NE 8.1 mph - N/A   Clear
9:53 AM 10.0 °F -5.2 °F 1.0 °F 67% 29.92 in 10.0 mi NNE 12.7 mph - N/A   Clear
10:53 AM 10.9 °F 4.7 °F -0.9 °F 59% 29.92 in 10.0 mi ENE 3.5 mph - N/A   Clear
11:53 AM 12.0 °F 2.7 °F 1.9 °F 64% 29.90 in 10.0 mi NE 5.8 mph - N/A   Clear
12:53 PM 12.9 °F 2.6 °F 3.0 °F 65% 29.85 in 10.0 mi NE 6.9 mph - N/A   Clear
1:53 PM 14.0 °F 6.5 °F 1.9 °F 59% 29.81 in 10.0 mi NNE 4.6 mph - N/A   Clear
2:53 PM 15.1 °F 5.2 °F 1.9 °F 56% 29.77 in 10.0 mi NNE 6.9 mph - N/A   Clear
3:53 PM 16.0 °F 6.3 °F 3.9 °F 59% 29.72 in 10.0 mi NNE 6.9 mph - N/A   Clear
4:53 PM 16.0 °F 8.8 °F 5.0 °F 62% 29.68 in 10.0 mi NNE 4.6 mph - N/A   Mostly Cloudy
5:53 PM 17.1 °F 10.0 °F 7.0 °F 65% 29.66 in 10.0 mi NNE 4.6 mph - N/A   Overcast
6:53 PM 18.0 °F 7.7 °F 9.0 °F 68% 29.62 in 10.0 mi NE 8.1 mph - N/A   Overcast
7:53 PM 19.0 °F 9.0 °F 10.9 °F 71% 29.57 in 10.0 mi NE 8.1 mph - N/A   Overcast
8:53 PM 19.9 °F 13.4 °F 10.9 °F 68% 29.52 in 10.0 mi Variable 4.6 mph - N/A   Overcast
9:53 PM 19.9 °F 13.4 °F 12.0 °F 71% 29.49 in 10.0 mi East 4.6 mph - N/A   Overcast
10:53 PM 21.0 °F - 15.1 °F 78% 29.46 in 10.0 mi Calm Calm - N/A   Overcast
11:53 PM 21.9 °F - 16.0 °F 78% 29.43 in 10.0 mi Calm Calm - N/A   Overcast